When you browse on this site, cookies collect data to enhance your experience and personalize the content and advertising you see.
Visit our Privacy Policy to learn more. By continuing to use the site, you agree to this use of cookies and data.

Météo par heure à Luanda

Ce jour, 29 Septembre, Mardi

Heure Température Précipitation Vent Pression Humidité
00:00 +24°C° 0 mm 3 m/s 755 mmHg 77%
01:00 +24°C° 0 mm 2 m/s 755 mmHg 78%
02:00 +24°C° 0 mm 2 m/s 754 mmHg 80%
03:00 +23°C° 0 mm 2 m/s 754 mmHg 81%
04:00 +23°C° 0 mm 2 m/s 754 mmHg 83%
05:00 +23°C° 0 mm 2 m/s 754 mmHg 81%
06:00 +24°C° 0 mm 2 m/s 755 mmHg 79%
07:00 +24°C° 0 mm 2 m/s 755 mmHg 77%
08:00 +26°C° 0 mm 1 m/s 755 mmHg 69%
09:00 +28°C° 0 mm 1 m/s 755 mmHg 61%
10:00 +30°C° 0 mm 1 m/s 755 mmHg 52%
11:00 +30°C° 0 mm 2 m/s 755 mmHg 51%
12:00 +31°C° 0 mm 3 m/s 754 mmHg 50%
13:00 +32°C° 0 mm 4 m/s 753 mmHg 49%
14:00 +30°C° 0 mm 5 m/s 753 mmHg 53%
15:00 +30°C° 0 mm 6 m/s 752 mmHg 56%
16:00 +29°C° 0 mm 6 m/s 751 mmHg 60%
17:00 +28°C° 0 mm 6 m/s 752 mmHg 65%
18:00 +26°C° 0 mm 5 m/s 752 mmHg 70%
19:00 +25°C° 0 mm 5 m/s 753 mmHg 76%
20:00 +25°C° 0 mm 5 m/s 753 mmHg 77%
21:00 +25°C° 0 mm 4 m/s 754 mmHg 78%
22:00 +25°C° 0 mm 4 m/s 754 mmHg 79%
23:00 +25°C° 0 mm 4 m/s 754 mmHg 78%

Demain, 30 Septembre, Mercredi

Heure Température Précipitation Vent Pression Humidité
00:00 +25°C° 0 mm 3 m/s 754 mmHg 76%
01:00 +25°C° 0 mm 3 m/s 754 mmHg 75%
02:00 +25°C° 0 mm 3 m/s 754 mmHg 75%
03:00 +25°C° 0 mm 2 m/s 754 mmHg 74%
04:00 +25°C° 0 mm 2 m/s 753 mmHg 74%
05:00 +25°C° 0 mm 1 m/s 754 mmHg 73%
06:00 +25°C° 0 mm 1 m/s 754 mmHg 72%
07:00 +23°C° 0 mm 0 m/s 755 mmHg 71%
08:00 +27°C° 0 mm 1 m/s 755 mmHg 66%
09:00 +28°C° 0 mm 1 m/s 755 mmHg 60%
10:00 +29°C° 0 mm 2 m/s 755 mmHg 54%
11:00 +30°C° 0 mm 3 m/s 754 mmHg 52%
12:00 +30°C° 0 mm 3 m/s 753 mmHg 51%
13:00 +32°C° 0 mm 4 m/s 753 mmHg 49%
14:00 +30°C° 0 mm 5 m/s 752 mmHg 52%
15:00 +30°C° 0 mm 5 m/s 752 mmHg 54%
16:00 +29°C° 0 mm 5 m/s 751 mmHg 57%
17:00 +28°C° 0 mm 5 m/s 752 mmHg 63%
18:00 +27°C° 0 mm 5 m/s 752 mmHg 69%
19:00 +25°C° 0 mm 5 m/s 753 mmHg 75%
20:00 +25°C° 0 mm 5 m/s 753 mmHg 76%
21:00 +25°C° 0 mm 5 m/s 754 mmHg 77%
22:00 +25°C° 0 mm 5 m/s 754 mmHg 78%
23:00 +25°C° 0 mm 4 m/s 754 mmHg 78%

Après-demain, 1 Octobre, Jeudi

Heure Température Précipitation Vent Pression Humidité
00:00 +25°C° 0 mm 4 m/s 754 mmHg 77%
01:00 +25°C° 0 mm 4 m/s 754 mmHg 77%
02:00 +25°C° 0 mm 3 m/s 754 mmHg 77%
03:00 +25°C° 0 mm 2 m/s 753 mmHg 76%
04:00 +25°C° 0 mm 1 m/s 753 mmHg 75%
05:00 +25°C° 0 mm 1 m/s 754 mmHg 74%
06:00 +25°C° 0 mm 1 m/s 754 mmHg 74%
07:00 +25°C° 0 mm 1 m/s 754 mmHg 74%
08:00 +27°C° 0 mm 1 m/s 754 mmHg 67%
09:00 +28°C° 0 mm 1 m/s 755 mmHg 60%
10:00 +30°C° 0 mm 2 m/s 755 mmHg 53%
11:00 +30°C° 0 mm 3 m/s 754 mmHg 52%
12:00 +31°C° 0 mm 3 m/s 753 mmHg 51%
13:00 +32°C° 0 mm 4 m/s 753 mmHg 50%
14:00 +30°C° 0 mm 5 m/s 752 mmHg 53%
15:00 +30°C° 0 mm 5 m/s 752 mmHg 56%
16:00 +29°C° 0 mm 6 m/s 751 mmHg 59%
17:00 +28°C° 0 mm 5 m/s 752 mmHg 65%
18:00 +27°C° 0 mm 5 m/s 752 mmHg 70%
19:00 +25°C° 0 mm 4 m/s 753 mmHg 76%
20:00 +25°C° 0 mm 5 m/s 753 mmHg 78%
21:00 +25°C° 0 mm 5 m/s 754 mmHg 79%
22:00 +25°C° 0 mm 5 m/s 754 mmHg 80%
23:00 +25°C° 0 mm 4 m/s 754 mmHg 80%

2 Octobre, Vendredi

Heure Température Précipitation Vent Pression Humidité
00:00 +25°C° 0 mm 4 m/s 754 mmHg 79%
01:00 +25°C° 0 mm 4 m/s 754 mmHg 79%
02:00 +25°C° 0 mm 3 m/s 754 mmHg 77%
03:00 +25°C° 0 mm 3 m/s 753 mmHg 76%
04:00 +25°C° 0 mm 3 m/s 753 mmHg 74%
05:00 +25°C° 0 mm 2 m/s 754 mmHg 73%
06:00 +25°C° 0 mm 2 m/s 754 mmHg 72%
07:00 +25°C° 0 mm 2 m/s 755 mmHg 70%
08:00 +26°C° 0 mm 2 m/s 755 mmHg 67%
09:00 +27°C° 0 mm 1 m/s 755 mmHg 64%
10:00 +27°C° 0 mm 1 m/s 755 mmHg 61%
11:00 +28°C° 0 mm 2 m/s 755 mmHg 58%
12:00 +29°C° 0 mm 3 m/s 754 mmHg 55%
13:00 +30°C° 0 mm 3 m/s 753 mmHg 52%
14:00 +30°C° 0 mm 4 m/s 753 mmHg 55%
15:00 +29°C° 0 mm 4 m/s 752 mmHg 57%
16:00 +29°C° 0 mm 5 m/s 752 mmHg 59%
17:00 +28°C° 0 mm 5 m/s 752 mmHg 64%
18:00 +27°C° 0 mm 5 m/s 753 mmHg 69%
19:00 +26°C° 0 mm 4 m/s 753 mmHg 73%
20:00 +25°C° 0 mm 4 m/s 754 mmHg 75%
21:00 +25°C° 0 mm 4 m/s 754 mmHg 76%
22:00 +25°C° 0 mm 4 m/s 754 mmHg 77%
23:00 +25°C° 0 mm 4 m/s 754 mmHg 78%

3 Octobre, Samedi

Heure Température Précipitation Vent Pression Humidité
00:00 +23°C° 0 mm 4 m/s 754 mmHg 79%
01:00 +23°C° 0 mm 4 m/s 754 mmHg 81%
02:00 +23°C° 0 mm 4 m/s 754 mmHg 81%
03:00 +24°C° 0 mm 3 m/s 754 mmHg 81%
04:00 +24°C° 0 mm 3 m/s 754 mmHg 81%
05:00 +24°C° 0 mm 3 m/s 754 mmHg 79%
06:00 +24°C° 0 mm 3 m/s 754 mmHg 77%
07:00 +25°C° 0 mm 2 m/s 755 mmHg 75%
08:00 +26°C° 0 mm 2 m/s 755 mmHg 67%
09:00 +28°C° 0 mm 2 m/s 755 mmHg 60%
10:00 +30°C° 0 mm 1 m/s 755 mmHg 53%
11:00 +30°C° 0 mm 2 m/s 754 mmHg 51%
12:00 +31°C° 0 mm 3 m/s 754 mmHg 50%
13:00 +33°C° 0 mm 3 m/s 753 mmHg 48%
14:00 +30°C° 0 mm 4 m/s 753 mmHg 55%
15:00 +28°C° 0 mm 5 m/s 752 mmHg 61%
16:00 +27°C° 0 mm 6 m/s 752 mmHg 68%
17:00 +26°C° 0 mm 6 m/s 752 mmHg 71%
18:00 +26°C° 0 mm 5 m/s 752 mmHg 75%
19:00 +25°C° 0 mm 4 m/s 753 mmHg 78%
20:00 +25°C° 0 mm 4 m/s 754 mmHg 78%
21:00 +25°C° 0 mm 4 m/s 754 mmHg 79%
22:00 +25°C° 0 mm 4 m/s 755 mmHg 79%
23:00 +25°C° 0 mm 3 m/s 755 mmHg 78%

4 Octobre, Dimanche

Heure Température Précipitation Vent Pression Humidité
00:00 +25°C° 0 mm 3 m/s 755 mmHg 78%
01:00 +25°C° 0 mm 3 m/s 755 mmHg 77%
02:00 +25°C° 0 mm 3 m/s 754 mmHg 76%
03:00 +25°C° 0 mm 2 m/s 754 mmHg 75%
04:00 +25°C° 0 mm 2 m/s 754 mmHg 74%
05:00 +25°C° 0 mm 1 m/s 754 mmHg 73%
06:00 +25°C° 0 mm 1 m/s 755 mmHg 72%
07:00 +25°C° 0 mm 1 m/s 755 mmHg 71%
08:00 +26°C° 0 mm 1 m/s 755 mmHg 67%
09:00 +27°C° 0 mm 1 m/s 755 mmHg 62%
10:00 +28°C° 0 mm 1 m/s 755 mmHg 58%
11:00 +29°C° 0 mm 2 m/s 755 mmHg 56%
12:00 +29°C° 0 mm 3 m/s 754 mmHg 55%
13:00 +30°C° 0 mm 4 m/s 753 mmHg 53%
14:00 +29°C° 0 mm 4 m/s 753 mmHg 57%
15:00 +28°C° 0 mm 4 m/s 752 mmHg 60%
16:00 +27°C° 0 mm 5 m/s 752 mmHg 63%
17:00 +26°C° 0 mm 5 m/s 752 mmHg 68%
18:00 +26°C° 0 mm 4 m/s 752 mmHg 72%
19:00 +25°C° 0 mm 4 m/s 753 mmHg 76%
20:00 +25°C° 0 mm 4 m/s 753 mmHg 77%
21:00 +24°C° 0 mm 3 m/s 754 mmHg 79%
22:00 +24°C° 0 mm 3 m/s 755 mmHg 80%
23:00 +24°C° 0 mm 3 m/s 755 mmHg 81%
Voir plus